Year,Month,Day,Hour,Minute,Value (Times are PST for temperature in C)
2016,08,04,00,00,15.60
2016,08,04,00,01,15.60
2016,08,04,00,02,15.50
2016,08,04,00,03,15.50
2016,08,04,00,04,15.40
2016,08,04,00,05,15.40
2016,08,04,00,06,15.40
2016,08,04,00,07,15.30
2016,08,04,00,08,15.30
2016,08,04,00,09,15.30
2016,08,04,00,10,15.30
2016,08,04,00,11,15.30
2016,08,04,00,12,15.30
2016,08,04,00,13,15.30
2016,08,04,00,14,15.30
2016,08,04,00,15,15.30
2016,08,04,00,16,15.30
2016,08,04,00,17,15.30
2016,08,04,00,18,15.30
2016,08,04,00,19,15.40
2016,08,04,00,20,15.50
2016,08,04,00,21,15.50
2016,08,04,00,22,15.60
2016,08,04,00,23,15.60
2016,08,04,00,24,15.60
2016,08,04,00,25,15.60
2016,08,04,00,26,15.60
2016,08,04,00,27,15.60
2016,08,04,00,28,15.60
2016,08,04,00,29,15.60
2016,08,04,00,30,15.60
2016,08,04,00,31,15.60
2016,08,04,00,32,15.60
2016,08,04,00,33,15.50
2016,08,04,00,34,15.50
2016,08,04,00,35,15.40
2016,08,04,00,36,15.40
2016,08,04,00,37,15.30
2016,08,04,00,38,15.30
2016,08,04,00,39,15.30
2016,08,04,00,40,15.30
2016,08,04,00,41,15.30
2016,08,04,00,42,15.30
2016,08,04,00,43,15.40
2016,08,04,00,44,15.40
2016,08,04,00,45,15.50
2016,08,04,00,46,15.60
2016,08,04,00,47,15.70
2016,08,04,00,48,15.70
2016,08,04,00,49,15.80
2016,08,04,00,50,15.90
2016,08,04,00,51,16.00
2016,08,04,00,52,16.00
2016,08,04,00,53,16.10
2016,08,04,00,54,16.20
2016,08,04,00,55,16.20
2016,08,04,00,56,16.30
2016,08,04,00,57,16.30
2016,08,04,00,58,16.30
2016,08,04,00,59,16.30
2016,08,04,01,00,16.30
2016,08,04,01,01,16.30
2016,08,04,01,02,16.30
2016,08,04,01,03,16.30
2016,08,04,01,04,16.30
2016,08,04,01,05,16.30
2016,08,04,01,06,16.30
2016,08,04,01,07,16.20
2016,08,04,01,08,16.20
2016,08,04,01,09,16.10
2016,08,04,01,10,16.00
2016,08,04,01,11,16.00
2016,08,04,01,12,15.90
2016,08,04,01,13,15.90
2016,08,04,01,14,15.80
2016,08,04,01,15,15.80
2016,08,04,01,16,15.80
2016,08,04,01,17,15.80
2016,08,04,01,18,15.70
2016,08,04,01,19,15.70
2016,08,04,01,20,15.70
2016,08,04,01,21,15.60
2016,08,04,01,22,15.60
2016,08,04,01,23,15.50
2016,08,04,01,24,15.50
2016,08,04,01,25,15.40
2016,08,04,01,26,15.40
2016,08,04,01,27,15.40
2016,08,04,01,28,15.30
2016,08,04,01,29,15.30
2016,08,04,01,30,15.30
2016,08,04,01,31,15.30
2016,08,04,01,32,15.30
2016,08,04,01,33,15.40
2016,08,04,01,34,15.40
2016,08,04,01,35,15.50
2016,08,04,01,36,15.60
2016,08,04,01,37,15.60
2016,08,04,01,38,15.60
2016,08,04,01,39,15.70
2016,08,04,01,40,15.70
2016,08,04,01,41,15.70
2016,08,04,01,42,15.70
2016,08,04,01,43,15.70
2016,08,04,01,44,15.70
2016,08,04,01,45,15.70
2016,08,04,01,46,15.70
2016,08,04,01,47,15.70
2016,08,04,01,48,15.60
2016,08,04,01,49,15.60
2016,08,04,01,50,15.50
2016,08,04,01,51,15.40
2016,08,04,01,52,15.40
2016,08,04,01,53,15.40
2016,08,04,01,54,15.30
2016,08,04,01,55,15.30
2016,08,04,01,56,15.30
2016,08,04,01,57,15.30
2016,08,04,01,58,15.30
2016,08,04,01,59,15.30
2016,08,04,02,00,15.30
2016,08,04,02,01,15.30
2016,08,04,02,02,15.30
2016,08,04,02,03,15.30
2016,08,04,02,04,15.30
2016,08,04,02,05,15.30
2016,08,04,02,06,15.30
2016,08,04,02,07,15.30
2016,08,04,02,08,15.20
2016,08,04,02,09,15.20
2016,08,04,02,10,15.20
2016,08,04,02,11,15.10
2016,08,04,02,12,15.10
2016,08,04,02,13,15.10
2016,08,04,02,14,15.10
2016,08,04,02,15,15.10
2016,08,04,02,16,15.00
2016,08,04,02,17,15.00
2016,08,04,02,18,15.00
2016,08,04,02,19,14.90
2016,08,04,02,20,14.90
2016,08,04,02,21,14.90
2016,08,04,02,22,14.90
2016,08,04,02,23,14.80
2016,08,04,02,24,14.80
2016,08,04,02,25,14.80
2016,08,04,02,26,14.70
2016,08,04,02,27,14.70
2016,08,04,02,28,14.60
2016,08,04,02,29,14.60
2016,08,04,02,30,14.60
2016,08,04,02,31,14.60
2016,08,04,02,32,14.60
2016,08,04,02,33,14.60
2016,08,04,02,34,14.50
2016,08,04,02,35,14.50
2016,08,04,02,36,14.40
2016,08,04,02,37,14.40
2016,08,04,02,38,14.40
2016,08,04,02,39,14.30
2016,08,04,02,40,14.30
2016,08,04,02,41,14.30
2016,08,04,02,42,14.20
2016,08,04,02,43,14.20
2016,08,04,02,44,14.20
2016,08,04,02,45,14.20
2016,08,04,02,46,14.10
2016,08,04,02,47,14.10
2016,08,04,02,48,14.10
2016,08,04,02,49,14.10
2016,08,04,02,50,14.10
2016,08,04,02,51,14.00
2016,08,04,02,52,14.00
2016,08,04,02,53,14.00
2016,08,04,02,54,14.10
2016,08,04,02,55,14.10
2016,08,04,02,56,14.20
2016,08,04,02,57,14.20
2016,08,04,02,58,14.20
2016,08,04,02,59,14.20
2016,08,04,03,00,14.20
2016,08,04,03,01,14.10
2016,08,04,03,02,14.10
2016,08,04,03,03,14.10
2016,08,04,03,04,14.10
2016,08,04,03,05,14.00
2016,08,04,03,06,14.00
2016,08,04,03,07,14.00
2016,08,04,03,08,13.90
2016,08,04,03,09,13.90
2016,08,04,03,10,13.90
2016,08,04,03,11,13.90
2016,08,04,03,12,13.90
2016,08,04,03,13,13.90
2016,08,04,03,14,13.90
2016,08,04,03,15,13.90
2016,08,04,03,16,13.90
2016,08,04,03,17,13.90
2016,08,04,03,18,14.00
2016,08,04,03,19,14.10
2016,08,04,03,20,14.10
2016,08,04,03,21,14.20
2016,08,04,03,22,14.20
2016,08,04,03,23,14.10
2016,08,04,03,24,14.10
2016,08,04,03,25,14.10
2016,08,04,03,26,14.10
2016,08,04,03,27,14.10
2016,08,04,03,28,14.10
2016,08,04,03,29,14.10
2016,08,04,03,30,14.10
2016,08,04,03,31,14.00
2016,08,04,03,32,14.00
2016,08,04,03,33,14.00
2016,08,04,03,34,13.90
2016,08,04,03,35,13.90
2016,08,04,03,36,13.90
2016,08,04,03,37,13.90
2016,08,04,03,38,13.80
2016,08,04,03,39,13.80
2016,08,04,03,40,13.80
2016,08,04,03,41,13.70
2016,08,04,03,42,13.70
2016,08,04,03,43,13.70
2016,08,04,03,44,13.60
2016,08,04,03,45,13.60
2016,08,04,03,46,13.60
2016,08,04,03,47,13.60
2016,08,04,03,48,13.50
2016,08,04,03,49,13.50
2016,08,04,03,50,13.40
2016,08,04,03,51,13.40
2016,08,04,03,52,13.40
2016,08,04,03,53,13.40
2016,08,04,03,54,13.30
2016,08,04,03,55,13.30
2016,08,04,03,56,13.30
2016,08,04,03,57,13.30
2016,08,04,03,58,13.30
2016,08,04,03,59,13.30
2016,08,04,04,00,13.30
2016,08,04,04,01,13.20
2016,08,04,04,02,13.20
2016,08,04,04,03,13.20
2016,08,04,04,04,13.20
2016,08,04,04,05,13.10
2016,08,04,04,06,13.10
2016,08,04,04,07,13.10
2016,08,04,04,08,13.00
2016,08,04,04,09,13.00
2016,08,04,04,10,12.90
2016,08,04,04,11,12.90
2016,08,04,04,12,12.90
2016,08,04,04,13,12.90
2016,08,04,04,14,12.90
2016,08,04,04,15,12.90
2016,08,04,04,16,12.90
2016,08,04,04,17,12.90
2016,08,04,04,18,13.00
2016,08,04,04,19,13.10
2016,08,04,04,20,13.20
2016,08,04,04,21,13.20
2016,08,04,04,22,13.30
2016,08,04,04,23,13.30
2016,08,04,04,24,13.30
2016,08,04,04,25,13.40
2016,08,04,04,26,13.40
2016,08,04,04,27,13.50
2016,08,04,04,28,13.50
2016,08,04,04,29,13.60
2016,08,04,04,30,13.70
2016,08,04,04,31,13.70
2016,08,04,04,32,13.70
2016,08,04,04,33,13.70
2016,08,04,04,34,13.70
2016,08,04,04,35,13.70
2016,08,04,04,36,13.70
2016,08,04,04,37,13.60
2016,08,04,04,38,13.60
2016,08,04,04,39,13.60
2016,08,04,04,40,13.60
2016,08,04,04,41,13.60
2016,08,04,04,42,13.50
2016,08,04,04,43,13.50
2016,08,04,04,44,13.50
2016,08,04,04,45,13.40
2016,08,04,04,46,13.40
2016,08,04,04,47,13.30
2016,08,04,04,48,13.30
2016,08,04,04,49,13.20
2016,08,04,04,50,13.20
2016,08,04,04,51,13.10
2016,08,04,04,52,13.00
2016,08,04,04,53,13.00
2016,08,04,04,54,13.00
2016,08,04,04,55,12.90
2016,08,04,04,56,12.90
2016,08,04,04,57,12.90
2016,08,04,04,58,12.90
2016,08,04,04,59,12.90
2016,08,04,05,00,12.90
2016,08,04,05,01,12.90
2016,08,04,05,02,12.90
2016,08,04,05,03,12.80
2016,08,04,05,04,12.80
2016,08,04,05,05,12.80
2016,08,04,05,06,12.80
2016,08,04,05,07,12.80
2016,08,04,05,08,12.80
2016,08,04,05,09,12.80
2016,08,04,05,10,12.80
2016,08,04,05,11,12.70
2016,08,04,05,12,12.70
2016,08,04,05,13,12.70
2016,08,04,05,14,12.60
2016,08,04,05,15,12.60
2016,08,04,05,16,12.60
2016,08,04,05,17,12.80
2016,08,04,05,18,12.90
2016,08,04,05,19,12.90
2016,08,04,05,20,12.80
2016,08,04,05,21,12.80
2016,08,04,05,22,12.80
2016,08,04,05,23,12.90
2016,08,04,05,24,12.90
2016,08,04,05,25,13.00
2016,08,04,05,26,13.00
2016,08,04,05,27,13.00
2016,08,04,05,28,13.10
2016,08,04,05,29,13.00
2016,08,04,05,30,13.00
2016,08,04,05,31,12.90
2016,08,04,05,32,12.90
2016,08,04,05,33,12.90
2016,08,04,05,34,12.90
2016,08,04,05,35,12.90
2016,08,04,05,36,12.80
2016,08,04,05,37,12.80
2016,08,04,05,38,12.80
2016,08,04,05,39,12.90
2016,08,04,05,40,12.90
2016,08,04,05,41,12.80
2016,08,04,05,42,12.80
2016,08,04,05,43,12.80
2016,08,04,05,44,12.80
2016,08,04,05,45,12.90
2016,08,04,05,46,12.90
2016,08,04,05,47,13.00
2016,08,04,05,48,13.10
2016,08,04,05,49,13.20
2016,08,04,05,50,13.30
2016,08,04,05,51,13.40
2016,08,04,05,52,13.40
2016,08,04,05,53,13.50
2016,08,04,05,54,13.60
2016,08,04,05,55,13.60
2016,08,04,05,56,13.50
2016,08,04,05,57,13.50
2016,08,04,05,58,13.40
2016,08,04,05,59,13.30
2016,08,04,06,00,13.20
2016,08,04,06,01,13.30
2016,08,04,06,02,13.20
2016,08,04,06,03,13.20
2016,08,04,06,04,13.20
2016,08,04,06,05,13.30
2016,08,04,06,06,13.40
2016,08,04,06,07,13.50
2016,08,04,06,08,13.60
2016,08,04,06,09,13.70
2016,08,04,06,10,13.70
2016,08,04,06,11,13.70
2016,08,04,06,12,13.70
2016,08,04,06,13,13.70
2016,08,04,06,14,13.70
2016,08,04,06,15,13.70
2016,08,04,06,16,13.70
2016,08,04,06,17,13.70
2016,08,04,06,18,13.70
2016,08,04,06,19,13.70
2016,08,04,06,20,13.70
2016,08,04,06,21,13.70
2016,08,04,06,22,13.70
2016,08,04,06,23,13.60
2016,08,04,06,24,13.60
2016,08,04,06,25,13.60
2016,08,04,06,26,13.60
2016,08,04,06,27,13.60
2016,08,04,06,28,13.50
2016,08,04,06,29,13.50
2016,08,04,06,30,13.40
2016,08,04,06,31,13.40
2016,08,04,06,32,13.40
2016,08,04,06,33,13.40
2016,08,04,06,34,13.40
2016,08,04,06,35,13.40
2016,08,04,06,36,13.40
2016,08,04,06,37,13.40
2016,08,04,06,38,13.40
2016,08,04,06,39,13.40
2016,08,04,06,40,13.30
2016,08,04,06,41,13.30
2016,08,04,06,42,13.40
2016,08,04,06,43,13.40
2016,08,04,06,44,13.40
2016,08,04,06,45,13.50
2016,08,04,06,46,13.50
2016,08,04,06,47,13.60
2016,08,04,06,48,13.60
2016,08,04,06,49,13.60
2016,08,04,06,50,13.70
2016,08,04,06,51,13.70
2016,08,04,06,52,13.80
2016,08,04,06,53,13.80
2016,08,04,06,54,13.80
2016,08,04,06,55,13.90
2016,08,04,06,56,14.00
2016,08,04,06,57,14.10
2016,08,04,06,58,14.20
2016,08,04,06,59,14.30
2016,08,04,07,00,14.30
2016,08,04,07,01,14.40
2016,08,04,07,02,14.50
2016,08,04,07,03,14.60
2016,08,04,07,04,14.70
2016,08,04,07,05,14.80
2016,08,04,07,06,14.90
2016,08,04,07,07,15.00
2016,08,04,07,08,15.10
2016,08,04,07,09,15.20
2016,08,04,07,10,15.30
2016,08,04,07,11,15.30
2016,08,04,07,12,15.40
2016,08,04,07,13,15.40
2016,08,04,07,14,15.50
2016,08,04,07,15,15.60
2016,08,04,07,16,15.60
2016,08,04,07,17,15.70
2016,08,04,07,18,15.70
2016,08,04,07,19,15.80
2016,08,04,07,20,15.80
2016,08,04,07,21,15.80
2016,08,04,07,22,15.80
2016,08,04,07,23,15.90
2016,08,04,07,24,15.90
2016,08,04,07,25,15.90
2016,08,04,07,26,16.00
2016,08,04,07,27,16.00
2016,08,04,07,28,16.00
2016,08,04,07,29,16.10
2016,08,04,07,30,16.10
2016,08,04,07,31,16.10
2016,08,04,07,32,16.10
2016,08,04,07,33,16.20
2016,08,04,07,34,16.20
2016,08,04,07,35,16.20
2016,08,04,07,36,16.20
2016,08,04,07,37,16.30
2016,08,04,07,38,16.30
2016,08,04,07,39,16.30
2016,08,04,07,40,16.30
2016,08,04,07,41,16.40
2016,08,04,07,42,16.40
2016,08,04,07,43,16.40
2016,08,04,07,44,16.40
2016,08,04,07,45,16.40
2016,08,04,07,46,16.50
2016,08,04,07,47,16.50
2016,08,04,07,48,16.50
2016,08,04,07,49,16.50
2016,08,04,07,50,16.60
2016,08,04,07,51,16.60
2016,08,04,07,52,16.60
2016,08,04,07,53,16.70
2016,08,04,07,54,16.70
2016,08,04,07,55,16.70
2016,08,04,07,56,16.80
2016,08,04,07,57,16.80
2016,08,04,07,58,16.80
2016,08,04,07,59,16.80
2016,08,04,08,00,16.80
2016,08,04,08,01,16.80
2016,08,04,08,02,16.80
2016,08,04,08,03,16.90
2016,08,04,08,04,16.90
2016,08,04,08,05,16.90
2016,08,04,08,06,16.90
2016,08,04,08,07,16.90
2016,08,04,08,08,16.90
2016,08,04,08,09,17.00
2016,08,04,08,10,17.00
2016,08,04,08,11,17.10
2016,08,04,08,12,17.10
2016,08,04,08,13,17.10
2016,08,04,08,14,17.10
2016,08,04,08,15,17.20
2016,08,04,08,16,17.20
2016,08,04,08,17,17.20
2016,08,04,08,18,17.20
2016,08,04,08,19,17.30
2016,08,04,08,20,17.30
2016,08,04,08,21,17.20
2016,08,04,08,22,17.20
2016,08,04,08,23,17.20
2016,08,04,08,24,17.20
2016,08,04,08,25,17.20
2016,08,04,08,26,17.20
2016,08,04,08,27,17.20
2016,08,04,08,28,17.20
2016,08,04,08,29,17.20
2016,08,04,08,30,17.20
2016,08,04,08,31,17.20
2016,08,04,08,32,17.20
2016,08,04,08,33,17.20
2016,08,04,08,34,17.20
2016,08,04,08,35,17.30
2016,08,04,08,36,17.30
2016,08,04,08,37,17.30
2016,08,04,08,38,17.30
2016,08,04,08,39,17.30
2016,08,04,08,40,17.30
2016,08,04,08,41,17.30
2016,08,04,08,42,17.30
2016,08,04,08,43,17.40
2016,08,04,08,44,17.40
2016,08,04,08,45,17.50
2016,08,04,08,46,17.50
2016,08,04,08,47,17.60
2016,08,04,08,48,17.60
2016,08,04,08,49,17.60
2016,08,04,08,50,17.60
2016,08,04,08,51,17.60
2016,08,04,08,52,17.60
2016,08,04,08,53,17.70
2016,08,04,08,54,17.70
2016,08,04,08,55,17.70
2016,08,04,08,56,17.70
2016,08,04,08,57,17.70
2016,08,04,08,58,17.80
2016,08,04,08,59,17.80
2016,08,04,09,00,17.80
2016,08,04,09,01,17.80
2016,08,04,09,02,17.90
2016,08,04,09,03,17.90
2016,08,04,09,04,17.90
2016,08,04,09,05,17.90
2016,08,04,09,06,17.80
2016,08,04,09,07,17.80
2016,08,04,09,08,17.80
2016,08,04,09,09,17.80
2016,08,04,09,10,17.80
2016,08,04,09,11,17.90
2016,08,04,09,12,18.00
2016,08,04,09,13,18.10
2016,08,04,09,14,18.10
2016,08,04,09,15,18.20
2016,08,04,09,16,18.20
2016,08,04,09,17,18.30
2016,08,04,09,18,18.30
2016,08,04,09,19,18.30
2016,08,04,09,20,18.30
2016,08,04,09,21,18.30
2016,08,04,09,22,18.30
2016,08,04,09,23,18.30
2016,08,04,09,24,18.30
2016,08,04,09,25,18.30
2016,08,04,09,26,18.30
2016,08,04,09,27,18.30
2016,08,04,09,28,18.30
2016,08,04,09,29,18.30
2016,08,04,09,30,18.30
2016,08,04,09,31,18.30
2016,08,04,09,32,18.30
2016,08,04,09,33,18.30
2016,08,04,09,34,18.30
2016,08,04,09,35,18.30
2016,08,04,09,36,18.30
2016,08,04,09,37,18.30
2016,08,04,09,38,18.40
2016,08,04,09,39,18.50
2016,08,04,09,40,18.50
2016,08,04,09,41,18.60
2016,08,04,09,42,18.60
2016,08,04,09,43,18.60
2016,08,04,09,44,18.60
2016,08,04,09,45,18.60
2016,08,04,09,46,18.50
2016,08,04,09,47,18.60
2016,08,04,09,48,18.60
2016,08,04,09,49,18.60
2016,08,04,09,50,18.60
2016,08,04,09,51,18.60
2016,08,04,09,52,18.70
2016,08,04,09,53,18.70
2016,08,04,09,54,18.70
2016,08,04,09,55,18.80
2016,08,04,09,56,18.80
2016,08,04,09,57,18.80
2016,08,04,09,58,18.70
2016,08,04,09,59,18.70
2016,08,04,10,00,18.70
2016,08,04,10,01,18.70
2016,08,04,10,02,18.80
2016,08,04,10,03,18.80
2016,08,04,10,04,18.90
2016,08,04,10,05,18.80
2016,08,04,10,06,18.80
2016,08,04,10,07,18.80
2016,08,04,10,08,18.80
2016,08,04,10,09,18.80
2016,08,04,10,10,18.70
2016,08,04,10,11,18.60
2016,08,04,10,12,18.60
2016,08,04,10,13,18.50
2016,08,04,10,14,18.50
2016,08,04,10,15,18.50
2016,08,04,10,16,18.50
2016,08,04,10,17,18.50
2016,08,04,10,18,18.50
2016,08,04,10,19,18.60
2016,08,04,10,20,18.60
2016,08,04,10,21,18.60
2016,08,04,10,22,18.60
2016,08,04,10,23,18.70
2016,08,04,10,24,18.70
2016,08,04,10,25,18.80
2016,08,04,10,26,18.80
2016,08,04,10,27,18.80
2016,08,04,10,28,18.90
2016,08,04,10,29,18.90
2016,08,04,10,30,18.90
2016,08,04,10,31,18.90
2016,08,04,10,32,18.90
2016,08,04,10,33,19.00
2016,08,04,10,34,19.10
2016,08,04,10,35,19.10
2016,08,04,10,36,19.10
2016,08,04,10,37,19.00
2016,08,04,10,38,19.00
2016,08,04,10,39,19.00
2016,08,04,10,40,19.00
2016,08,04,10,41,19.00
2016,08,04,10,42,19.00
2016,08,04,10,43,19.10
2016,08,04,10,44,19.10
2016,08,04,10,45,19.10
2016,08,04,10,46,19.10
2016,08,04,10,47,19.10
2016,08,04,10,48,19.10
2016,08,04,10,49,19.10
2016,08,04,10,50,19.20
2016,08,04,10,51,19.20
2016,08,04,10,52,19.30
2016,08,04,10,53,19.40
2016,08,04,10,54,19.40
2016,08,04,10,55,19.50
2016,08,04,10,56,19.60
2016,08,04,10,57,19.60
2016,08,04,10,58,19.60
2016,08,04,10,59,19.50
2016,08,04,11,00,19.50
2016,08,04,11,01,19.40
2016,08,04,11,02,19.40
2016,08,04,11,03,19.40
2016,08,04,11,04,19.30
2016,08,04,11,05,19.30
2016,08,04,11,06,19.40
2016,08,04,11,07,19.40
2016,08,04,11,08,19.50
2016,08,04,11,09,19.50
2016,08,04,11,10,19.50
2016,08,04,11,11,19.50
2016,08,04,11,12,19.50
2016,08,04,11,13,19.70
2016,08,04,11,14,19.80
2016,08,04,11,15,19.90
2016,08,04,11,16,19.90
2016,08,04,11,17,20.00
2016,08,04,11,18,20.00
2016,08,04,11,19,20.00
2016,08,04,11,20,19.90
2016,08,04,11,21,19.90
2016,08,04,11,22,19.90
2016,08,04,11,23,19.80
2016,08,04,11,24,19.80
2016,08,04,11,25,19.70
2016,08,04,11,26,19.70
2016,08,04,11,27,19.70
2016,08,04,11,28,19.80
2016,08,04,11,29,19.80
2016,08,04,11,30,19.80
2016,08,04,11,31,19.70
2016,08,04,11,32,19.60
2016,08,04,11,33,19.60
2016,08,04,11,34,19.60
2016,08,04,11,35,19.60
2016,08,04,11,36,19.60
2016,08,04,11,37,19.60
2016,08,04,11,38,19.60
2016,08,04,11,39,19.70
2016,08,04,11,40,19.80
2016,08,04,11,41,19.80
2016,08,04,11,42,19.80
2016,08,04,11,43,19.90
2016,08,04,11,44,19.90
2016,08,04,11,45,20.00
2016,08,04,11,46,20.10
2016,08,04,11,47,20.10
2016,08,04,11,48,20.20
2016,08,04,11,49,20.30
2016,08,04,11,50,20.40
2016,08,04,11,51,20.30
2016,08,04,11,52,20.30
2016,08,04,11,53,20.20
2016,08,04,11,54,20.20
2016,08,04,11,55,20.10
2016,08,04,11,56,20.20
2016,08,04,11,57,20.10
2016,08,04,11,58,20.10
2016,08,04,11,59,20.10
2016,08,04,12,00,20.10
2016,08,04,12,01,20.10
2016,08,04,12,02,20.10
2016,08,04,12,03,20.10
2016,08,04,12,04,20.10
2016,08,04,12,05,20.10
2016,08,04,12,06,20.20
2016,08,04,12,07,20.20
2016,08,04,12,08,20.30
2016,08,04,12,09,20.30
2016,08,04,12,10,20.40
2016,08,04,12,11,20.40
2016,08,04,12,12,20.40
2016,08,04,12,13,20.50
2016,08,04,12,14,20.60
2016,08,04,12,15,20.60
2016,08,04,12,16,20.70
2016,08,04,12,17,20.60
2016,08,04,12,18,20.50
2016,08,04,12,19,20.40
2016,08,04,12,20,20.30
2016,08,04,12,21,20.20
2016,08,04,12,22,20.20
2016,08,04,12,23,20.20
2016,08,04,12,24,20.20
2016,08,04,12,25,20.10
2016,08,04,12,26,20.10
2016,08,04,12,27,20.20
2016,08,04,12,28,20.20
2016,08,04,12,29,20.20
2016,08,04,12,30,20.20
2016,08,04,12,31,20.20
2016,08,04,12,32,20.30
2016,08,04,12,33,20.40
2016,08,04,12,34,20.50
2016,08,04,12,35,20.50
2016,08,04,12,36,20.40
2016,08,04,12,37,20.40
2016,08,04,12,38,20.40
2016,08,04,12,39,20.40
2016,08,04,12,40,20.50
2016,08,04,12,41,20.40
2016,08,04,12,42,20.40
2016,08,04,12,43,20.40
2016,08,04,12,44,20.50
2016,08,04,12,45,20.60
2016,08,04,12,46,20.60
2016,08,04,12,47,20.70
2016,08,04,12,48,20.70
2016,08,04,12,49,20.70
2016,08,04,12,50,20.80
2016,08,04,12,51,20.90
2016,08,04,12,52,20.90
2016,08,04,12,53,20.90
2016,08,04,12,54,20.90
2016,08,04,12,55,20.80
2016,08,04,12,56,20.80
2016,08,04,12,57,20.70
2016,08,04,12,58,20.70
2016,08,04,12,59,20.70
2016,08,04,13,00,20.60
2016,08,04,13,01,20.60
2016,08,04,13,02,20.60
2016,08,04,13,03,20.60
2016,08,04,13,04,20.60
2016,08,04,13,05,20.50
2016,08,04,13,06,20.50
2016,08,04,13,07,20.40
2016,08,04,13,08,20.40
2016,08,04,13,09,20.40
2016,08,04,13,10,20.50
2016,08,04,13,11,20.60
2016,08,04,13,12,20.60
2016,08,04,13,13,20.70
2016,08,04,13,14,20.70
2016,08,04,13,15,20.70
2016,08,04,13,16,20.70
2016,08,04,13,17,20.70
2016,08,04,13,18,20.70
2016,08,04,13,19,20.80
2016,08,04,13,20,20.80
2016,08,04,13,21,20.90
2016,08,04,13,22,20.90
2016,08,04,13,23,20.90
2016,08,04,13,24,20.90
2016,08,04,13,25,20.90
2016,08,04,13,26,20.90
2016,08,04,13,27,20.90
2016,08,04,13,28,21.00
2016,08,04,13,29,21.00
2016,08,04,13,30,21.00
2016,08,04,13,31,20.90
2016,08,04,13,32,20.90
2016,08,04,13,33,20.90
2016,08,04,13,34,21.00
2016,08,04,13,35,21.10
2016,08,04,13,36,21.20
2016,08,04,13,37,21.20
2016,08,04,13,38,21.20
2016,08,04,13,39,21.20
2016,08,04,13,40,21.20
2016,08,04,13,41,21.10
2016,08,04,13,42,21.00
2016,08,04,13,43,21.00
2016,08,04,13,44,20.90
2016,08,04,13,45,20.80
2016,08,04,13,46,20.80
2016,08,04,13,47,20.80
2016,08,04,13,48,20.80
2016,08,04,13,49,20.80
2016,08,04,13,50,20.90
2016,08,04,13,51,21.00
2016,08,04,13,52,21.10
2016,08,04,13,53,21.10
2016,08,04,13,54,21.10
2016,08,04,13,55,21.10
2016,08,04,13,56,21.10
2016,08,04,13,57,21.10
2016,08,04,13,58,21.10
2016,08,04,13,59,21.20
2016,08,04,14,00,21.30
2016,08,04,14,01,21.20
2016,08,04,14,02,21.10
2016,08,04,14,03,21.10
2016,08,04,14,04,21.10
2016,08,04,14,05,21.10
2016,08,04,14,06,21.10
2016,08,04,14,07,21.20
2016,08,04,14,08,21.30
2016,08,04,14,09,21.20
2016,08,04,14,10,21.20
2016,08,04,14,11,21.20
2016,08,04,14,12,21.20
2016,08,04,14,13,21.20
2016,08,04,14,14,21.20
2016,08,04,14,15,21.30
2016,08,04,14,16,21.30
2016,08,04,14,17,21.40
2016,08,04,14,18,21.30
2016,08,04,14,19,21.30
2016,08,04,14,20,21.30
2016,08,04,14,21,21.40
2016,08,04,14,22,21.40
2016,08,04,14,23,21.40
2016,08,04,14,24,21.50
2016,08,04,14,25,21.50
2016,08,04,14,26,21.40
2016,08,04,14,27,21.40
2016,08,04,14,28,21.50
2016,08,04,14,29,21.50
2016,08,04,14,30,21.60
2016,08,04,14,31,21.60
2016,08,04,14,32,21.70
2016,08,04,14,33,21.60
2016,08,04,14,34,21.60
2016,08,04,14,35,21.70
2016,08,04,14,36,21.70
2016,08,04,14,37,21.70
2016,08,04,14,38,21.60
2016,08,04,14,39,21.70
2016,08,04,14,40,21.70
2016,08,04,14,41,21.70
2016,08,04,14,42,21.70
2016,08,04,14,43,21.50
2016,08,04,14,44,21.40
2016,08,04,14,45,21.50
2016,08,04,14,46,21.60
2016,08,04,14,47,21.80
2016,08,04,14,48,21.90
2016,08,04,14,49,21.90
2016,08,04,14,50,21.90
2016,08,04,14,51,21.90
2016,08,04,14,52,21.90
2016,08,04,14,53,21.90
2016,08,04,14,54,21.90
2016,08,04,14,55,21.90
2016,08,04,14,56,22.00
2016,08,04,14,57,22.10
2016,08,04,14,58,22.20
2016,08,04,14,59,22.20
2016,08,04,15,00,22.20
2016,08,04,15,01,22.10
2016,08,04,15,02,22.10
2016,08,04,15,03,22.00
2016,08,04,15,04,22.00
2016,08,04,15,05,21.90
2016,08,04,15,06,22.00
2016,08,04,15,07,22.00
2016,08,04,15,08,22.10
2016,08,04,15,09,22.20
2016,08,04,15,10,22.20
2016,08,04,15,11,22.20
2016,08,04,15,12,22.20
2016,08,04,15,13,22.10
2016,08,04,15,14,22.10
2016,08,04,15,15,22.10
2016,08,04,15,16,22.00
2016,08,04,15,17,22.00
2016,08,04,15,18,21.90
2016,08,04,15,19,21.90
2016,08,04,15,20,21.90
2016,08,04,15,21,22.00
2016,08,04,15,22,22.10
2016,08,04,15,23,22.20
2016,08,04,15,24,22.30
2016,08,04,15,25,22.30
2016,08,04,15,26,22.40
2016,08,04,15,27,22.40
2016,08,04,15,28,22.50
2016,08,04,15,29,22.50
2016,08,04,15,30,22.40
2016,08,04,15,31,22.40
2016,08,04,15,32,22.40
2016,08,04,15,33,22.40
2016,08,04,15,34,22.50
2016,08,04,15,35,22.40
2016,08,04,15,36,22.30
2016,08,04,15,37,22.20
2016,08,04,15,38,22.10
2016,08,04,15,39,22.10
2016,08,04,15,40,22.20
2016,08,04,15,41,22.30
2016,08,04,15,42,22.30
2016,08,04,15,43,22.40
2016,08,04,15,44,22.50
2016,08,04,15,45,22.60
2016,08,04,15,46,22.60
2016,08,04,15,47,22.60
2016,08,04,15,48,22.60
2016,08,04,15,49,22.60
2016,08,04,15,50,22.60
2016,08,04,15,51,22.60
2016,08,04,15,52,22.60
2016,08,04,15,53,22.60
2016,08,04,15,54,22.60
2016,08,04,15,55,22.60
2016,08,04,15,56,22.70
2016,08,04,15,57,22.70
2016,08,04,15,58,22.70
2016,08,04,15,59,22.70
2016,08,04,16,00,22.70
2016,08,04,16,01,22.60
2016,08,04,16,02,22.60
2016,08,04,16,03,22.70
2016,08,04,16,04,22.70
2016,08,04,16,05,22.60
2016,08,04,16,06,22.50
2016,08,04,16,07,22.50
2016,08,04,16,08,22.50
2016,08,04,16,09,22.60
2016,08,04,16,10,22.50
2016,08,04,16,11,22.50
2016,08,04,16,12,22.50
2016,08,04,16,13,22.60
2016,08,04,16,14,22.60
2016,08,04,16,15,22.60
2016,08,04,16,16,22.70
2016,08,04,16,17,22.80
2016,08,04,16,18,22.80
2016,08,04,16,19,22.80
2016,08,04,16,20,22.80
2016,08,04,16,21,22.80
2016,08,04,16,22,22.80
2016,08,04,16,23,22.80
2016,08,04,16,24,22.70
2016,08,04,16,25,22.70
2016,08,04,16,26,22.70
2016,08,04,16,27,22.80
2016,08,04,16,28,22.80
2016,08,04,16,29,22.80
2016,08,04,16,30,22.90
2016,08,04,16,31,22.90
2016,08,04,16,32,22.90
2016,08,04,16,33,22.90
2016,08,04,16,34,22.90
2016,08,04,16,35,22.90
2016,08,04,16,36,22.90
2016,08,04,16,37,22.90
2016,08,04,16,38,23.00
2016,08,04,16,39,23.00
2016,08,04,16,40,22.90
2016,08,04,16,41,22.80
2016,08,04,16,42,22.80
2016,08,04,16,43,22.80
2016,08,04,16,44,22.70
2016,08,04,16,45,22.70
2016,08,04,16,46,22.70
2016,08,04,16,47,22.70
2016,08,04,16,48,22.60
2016,08,04,16,49,22.60
2016,08,04,16,50,22.60
2016,08,04,16,51,22.70
2016,08,04,16,52,22.80
2016,08,04,16,53,22.80
2016,08,04,16,54,22.80
2016,08,04,16,55,22.80
2016,08,04,16,56,22.80
2016,08,04,16,57,22.80
2016,08,04,16,58,22.80
2016,08,04,16,59,22.70
2016,08,04,17,00,22.70
2016,08,04,17,01,22.70
2016,08,04,17,02,22.70
2016,08,04,17,03,22.70
2016,08,04,17,04,22.80
2016,08,04,17,05,22.80
2016,08,04,17,06,22.70
2016,08,04,17,07,22.70
2016,08,04,17,08,22.70
2016,08,04,17,09,22.70
2016,08,04,17,10,22.70
2016,08,04,17,11,22.70
2016,08,04,17,12,22.70
2016,08,04,17,13,22.70
2016,08,04,17,14,22.70
2016,08,04,17,15,22.80
2016,08,04,17,16,22.80
2016,08,04,17,17,22.80
2016,08,04,17,18,22.90
2016,08,04,17,19,22.90